| time (UTC) | temp F | wind direction | speed MPH | gust MPH | rain 1hr in | rain 24hr in | rain mn in | humidity % | barometer mb |
| 20260506060330 | 65 | 355 | 6.0 | 17.0 | 0.00 | 0.00 | 0.00 | 57 | 1015.5 |
| 20260506060324 | 65 | 324 | 6.0 | 16.0 | 0.00 | 0.00 | 0.00 | 57 | 1015.3 |
| 20260506051323 | 65 | 338 | 5.0 | 12.0 | 0.00 | 0.00 | 0.00 | 56 | 1016.0 |
| 20260506050825 | 66 | 331 | 5.0 | 10.0 | 0.00 | 0.00 | 0.00 | 54 | 1016.1 |
| 20260506050821 | 65 | 324 | 5.0 | 10.0 | 0.00 | 0.00 | 0.00 | 55 | 1016.1 |
| 20260506044823 | 66 | 346 | 5.0 | 13.0 | 0.00 | 0.00 | 0.00 | 54 | 1016.5 |
| 20260506044328 | 66 | 314 | 6.0 | 16.0 | 0.00 | 0.00 | 0.00 | 54 | 1016.7 |
| 20260506044322 | 66 | 308 | 6.0 | 14.0 | 0.00 | 0.00 | 0.00 | 54 | 1016.6 |
| 20260506043821 | 66 | 290 | 7.0 | 14.0 | 0.00 | 0.00 | 0.00 | 54 | 1016.6 |
| 20260506042820 | 65 | 3 | 5.0 | 16.0 | 0.00 | 0.00 | 0.00 | 54 | 1016.7 |
| 20260506042318 | 65 | 347 | 5.0 | 16.0 | 0.00 | 0.00 | 0.00 | 55 | 1016.8 |
| 20260506041819 | 65 | 337 | 6.0 | 16.0 | 0.00 | 0.00 | 0.00 | 54 | 1016.9 |
| 20260506041318 | 65 | 301 | 5.0 | 14.0 | 0.00 | 0.00 | 0.00 | 54 | 1016.9 |
| 20260506040824 | 65 | 312 | 5.0 | 13.0 | 0.00 | 0.00 | 0.00 | 55 | 1017.1 |
| 20260506040818 | 65 | 333 | 5.0 | 14.0 | 0.00 | 0.00 | 0.00 | 54 | 1016.8 |
| 20260506040318 | 65 | 329 | 4.0 | 13.0 | 0.00 | 0.00 | 0.00 | 55 | 1017.0 |
| 20260506035316 | 65 | 285 | 4.0 | 13.0 | 0.00 | 0.00 | 0.00 | 55 | 1017.2 |
| 20260506034818 | 65 | 317 | 5.0 | 18.0 | 0.00 | 0.00 | 0.00 | 56 | 1017.4 |
| 20260506034318 | 65 | 314 | 6.0 | 18.0 | 0.00 | 0.00 | 0.00 | 55 | 1017.4 |
| 20260506033822 | 64 | 324 | 6.0 | 17.0 | 0.00 | 0.00 | 0.00 | 56 | 1017.5 |
| 20260506033817 | 65 | 320 | 5.0 | 15.0 | 0.00 | 0.00 | 0.00 | 54 | 1017.6 |
| 20260506033316 | 65 | 304 | 6.0 | 17.0 | 0.00 | 0.00 | 0.00 | 56 | 1017.6 |
| 20260506032325 | 64 | 285 | 4.0 | 14.0 | 0.00 | 0.00 | 0.00 | 57 | 1017.7 |
| 20260506032319 | 64 | 292 | 6.0 | 14.0 | 0.00 | 0.00 | 0.00 | 57 | 1017.6 |
| 20260506031319 | 64 | 333 | 4.0 | 11.0 | 0.00 | 0.00 | 0.00 | 57 | 1017.8 |
| 20260506030818 | 64 | 359 | 4.0 | 9.0 | 0.00 | 0.00 | 0.00 | 57 | 1017.9 |
| 20260506030322 | 64 | 327 | 3.0 | 10.0 | 0.00 | 0.00 | 0.00 | 58 | 1018.1 |
| 20260506030316 | 64 | 296 | 4.0 | 10.0 | 0.00 | 0.00 | 0.00 | 58 | 1018.0 |
| 20260506025316 | 63 | 334 | 3.0 | 7.0 | 0.00 | 0.00 | 0.00 | 58 | 1018.2 |
| 20260506024825 | 63 | 0 | 5.0 | 11.0 | 0.00 | 0.00 | 0.00 | 57 | 1018.4 |
| 20260506024819 | 63 | 335 | 4.0 | 11.0 | 0.00 | 0.00 | 0.00 | 58 | 1018.3 |
| 20260506023822 | 64 | 4 | 3.0 | 11.0 | 0.00 | 0.00 | 0.00 | 57 | 1018.6 |
| 20260506023816 | 64 | 349 | 4.0 | 11.0 | 0.00 | 0.00 | 0.00 | 57 | 1018.6 |
| 20260506022816 | 64 | 351 | 4.0 | 12.0 | 0.00 | 0.00 | 0.00 | 56 | 1018.8 |
| 20260506022322 | 64 | 283 | 5.0 | 11.0 | 0.00 | 0.00 | 0.00 | 58 | 1019.0 |
| 20260506022316 | 64 | 336 | 5.0 | 12.0 | 0.00 | 0.00 | 0.00 | 56 | 1018.9 |
| 20260506021316 | 63 | 299 | 5.0 | 10.0 | 0.00 | 0.00 | 0.00 | 58 | 1019.1 |
| 20260506020816 | 63 | 301 | 5.0 | 10.0 | 0.00 | 0.00 | 0.00 | 59 | 1019.2 |
| 20260506020318 | 63 | 331 | 4.0 | 10.0 | 0.00 | 0.00 | 0.00 | 59 | 1019.2 |
| 20260506015815 | 62 | 316 | 4.0 | 10.0 | 0.00 | 0.00 | 0.00 | 60 | 1019.4 |
| 20260506015317 | 62 | 301 | 5.0 | 11.0 | 0.00 | 0.00 | 0.00 | 60 | 1019.6 |
| 20260506014822 | 62 | 301 | 4.0 | 11.0 | 0.00 | 0.00 | 0.00 | 60 | 1019.8 |
| 20260506014816 | 62 | 306 | 5.0 | 11.0 | 0.00 | 0.00 | 0.00 | 60 | 1019.7 |
| 20260506013817 | 62 | 318 | 3.0 | 9.0 | 0.00 | 0.00 | 0.00 | 60 | 1019.9 |
| 20260506013314 | 62 | 309 | 3.0 | 10.0 | 0.00 | 0.00 | 0.00 | 60 | 1020.0 |
| 20260506012812 | 62 | 337 | 3.0 | 10.0 | 0.00 | 0.00 | 0.00 | 59 | 1020.1 |
| 20260506012311 | 62 | 4 | 3.0 | 11.0 | 0.00 | 0.00 | 0.00 | 61 | 1020.1 |
| 20260506011809 | 62 | 287 | 5.0 | 12.0 | 0.00 | 0.00 | 0.00 | 60 | 1020.2 |
| 20260506011310 | 62 | 287 | 5.0 | 12.0 | 0.00 | 0.00 | 0.00 | 62 | 1020.2 |
| 20260506010811 | 61 | 331 | 5.0 | 11.0 | 0.00 | 0.00 | 0.00 | 62 | 1020.2 |
| 20260506010309 | 61 | 337 | 5.0 | 11.0 | 0.00 | 0.00 | 0.00 | 63 | 1020.3 |
| 20260506005810 | 61 | 328 | 5.0 | 11.0 | 0.00 | 0.00 | 0.00 | 63 | 1020.4 |
| 20260506005310 | 61 | 298 | 4.0 | 11.0 | 0.00 | 0.00 | 0.00 | 62 | 1020.5 |
| 20260506004806 | 61 | 301 | 4.0 | 9.0 | 0.00 | 0.00 | 0.00 | 62 | 1020.5 |
| 20260506004305 | 61 | 341 | 4.0 | 9.0 | 0.00 | 0.00 | 0.00 | 63 | 1020.6 |
| 20260506003809 | 61 | 308 | 4.0 | 10.0 | 0.00 | 0.00 | 0.00 | 63 | 1020.6 |
| 20260506003805 | 61 | 297 | 5.0 | 11.0 | 0.00 | 0.00 | 0.00 | 63 | 1020.7 |
| 20260506002800 | 61 | 308 | 5.0 | 11.0 | 0.00 | 0.00 | 0.00 | 62 | 1020.8 |
| 20260506002259 | 61 | 303 | 5.0 | 10.0 | 0.00 | 0.00 | 0.00 | 62 | 1020.8 |
| 20260506001758 | 61 | 303 | 3.0 | 10.0 | 0.00 | 0.00 | 0.00 | 62 | 1020.9 |
| 20260506001300 | 61 | 306 | 4.0 | 8.0 | 0.00 | 0.00 | 0.00 | 62 | 1020.9 |
| 20260506000759 | 60 | 297 | 5.0 | 10.0 | 0.00 | 0.00 | 0.00 | 62 | 1020.9 |
| 20260506000303 | 60 | 300 | 4.0 | 9.0 | 0.00 | 0.00 | 0.00 | 62 | 1020.9 |
| 20260506000257 | 60 | 330 | 5.0 | 10.0 | 0.00 | 0.00 | 0.00 | 61 | 1021.0 |
| 20260505235255 | 60 | 304 | 4.0 | 9.0 | 0.00 | 0.00 | 0.00 | 62 | 1021.0 |
| 20260505234755 | 60 | 305 | 5.0 | 10.0 | 0.00 | 0.00 | 0.00 | 62 | 1021.0 |
| 20260505234255 | 60 | 303 | 5.0 | 11.0 | 0.00 | 0.00 | 0.00 | 62 | 1021.0 |
| 20260505233756 | 60 | 326 | 4.0 | 11.0 | 0.00 | 0.00 | 0.00 | 62 | 1021.0 |
| 20260505233257 | 60 | 327 | 3.0 | 10.0 | 0.00 | 0.00 | 0.00 | 62 | 1021.1 |
| 20260505232755 | 60 | 311 | 4.0 | 10.0 | 0.00 | 0.00 | 0.00 | 62 | 1021.1 |
| 20260505232301 | 60 | 311 | 4.0 | 12.0 | 0.00 | 0.00 | 0.00 | 63 | 1021.2 |
| 20260505232255 | 60 | 313 | 5.0 | 12.0 | 0.00 | 0.00 | 0.00 | 63 | 1021.2 |
| 20260505231256 | 60 | 347 | 3.0 | 9.0 | 0.00 | 0.00 | 0.00 | 63 | 1021.2 |
| 20260505230754 | 60 | 327 | 2.0 | 8.0 | 0.00 | 0.00 | 0.00 | 63 | 1021.3 |
| 20260505230255 | 60 | 308 | 2.0 | 7.0 | 0.00 | 0.00 | 0.00 | 64 | 1021.3 |
| 20260505225755 | 60 | 310 | 1.0 | 7.0 | 0.00 | 0.00 | 0.00 | 64 | 1021.3 |
| 20260505225254 | 60 | 310 | 2.0 | 7.0 | 0.00 | 0.00 | 0.00 | 65 | 1021.4 |
| 20260505224754 | 59 | 314 | 2.0 | 7.0 | 0.00 | 0.00 | 0.00 | 64 | 1021.4 |
| 20260505224253 | 59 | 322 | 3.0 | 9.0 | 0.00 | 0.00 | 0.00 | 65 | 1021.4 |
| 20260505223754 | 59 | 310 | 4.0 | 9.0 | 0.00 | 0.00 | 0.00 | 65 | 1021.4 |
| 20260505223251 | 59 | 326 | 3.0 | 8.0 | 0.00 | 0.00 | 0.00 | 65 | 1021.4 |
| 20260505222803 | 59 | 329 | 3.0 | 10.0 | 0.00 | 0.00 | 0.00 | 65 | 1021.4 |
| 20260505222752 | 59 | 338 | 3.0 | 6.0 | 0.00 | 0.00 | 0.00 | 65 | 1021.4 |
| 20260505222255 | 59 | 322 | 3.0 | 10.0 | 0.00 | 0.00 | 0.00 | 65 | 1021.4 |
| 20260505221252 | 59 | 309 | 3.0 | 10.0 | 0.00 | 0.00 | 0.00 | 65 | 1021.4 |
| 20260505220752 | 59 | 297 | 3.0 | 9.0 | 0.00 | 0.00 | 0.00 | 65 | 1021.5 |
| 20260505220251 | 59 | 314 | 3.0 | 7.0 | 0.00 | 0.00 | 0.00 | 66 | 1021.5 |
| 20260505215753 | 59 | 340 | 3.0 | 7.0 | 0.00 | 0.00 | 0.00 | 65 | 1021.5 |
| 20260505215252 | 59 | 307 | 3.0 | 8.0 | 0.00 | 0.00 | 0.00 | 66 | 1021.4 |
| 20260505214749 | 59 | 300 | 3.0 | 8.0 | 0.00 | 0.00 | 0.00 | 66 | 1021.4 |
| 20260505214249 | 59 | 317 | 3.0 | 7.0 | 0.00 | 0.00 | 0.00 | 66 | 1021.4 |
| 20260505213748 | 59 | 315 | 2.0 | 9.0 | 0.00 | 0.00 | 0.00 | 65 | 1021.4 |
| 20260505213248 | 59 | 300 | 3.0 | 9.0 | 0.00 | 0.00 | 0.00 | 65 | 1021.4 |
| 20260505212749 | 59 | 306 | 2.0 | 8.0 | 0.00 | 0.00 | 0.00 | 65 | 1021.3 |
| 20260505212245 | 59 | 310 | 2.0 | 7.0 | 0.00 | 0.00 | 0.00 | 65 | 1021.4 |
| 20260505211747 | 59 | 310 | 2.0 | 7.0 | 0.00 | 0.00 | 0.00 | 65 | 1021.3 |
| 20260505211246 | 59 | 305 | 3.0 | 8.0 | 0.00 | 0.00 | 0.00 | 65 | 1021.3 |
| 20260505210747 | 59 | 302 | 3.0 | 8.0 | 0.00 | 0.00 | 0.00 | 66 | 1021.4 |
| 20260505210247 | 59 | 314 | 3.0 | 10.0 | 0.00 | 0.00 | 0.00 | 66 | 1021.3 |
| 20260505205746 | 59 | 308 | 3.0 | 10.0 | 0.00 | 0.00 | 0.00 | 66 | 1021.3 |
| 20260505205245 | 59 | 306 | 3.0 | 8.0 | 0.00 | 0.00 | 0.00 | 66 | 1021.4 |
| 20260505204745 | 59 | 310 | 3.0 | 9.0 | 0.00 | 0.00 | 0.00 | 66 | 1021.4 |
| 20260505204245 | 59 | 311 | 3.0 | 9.0 | 0.00 | 0.00 | 0.00 | 66 | 1021.4 |
| 20260505203749 | 59 | 310 | 3.0 | 9.0 | 0.00 | 0.00 | 0.00 | 66 | 1021.4 |
| 20260505203743 | 59 | 316 | 3.0 | 8.0 | 0.00 | 0.00 | 0.00 | 66 | 1021.4 |
| 20260505202745 | 59 | 316 | 2.0 | 9.0 | 0.00 | 0.00 | 0.00 | 66 | 1021.5 |
| 20260505202243 | 59 | 314 | 2.0 | 5.0 | 0.00 | 0.00 | 0.00 | 66 | 1021.4 |
| 20260505201743 | 59 | 316 | 2.0 | 5.0 | 0.00 | 0.00 | 0.00 | 66 | 1021.5 |
| 20260505201241 | 59 | 311 | 3.0 | 5.0 | 0.00 | 0.00 | 0.00 | 66 | 1021.4 |
| 20260505200749 | 59 | 309 | 1.0 | 5.0 | 0.00 | 0.00 | 0.00 | 66 | 1021.4 |
| 20260505200741 | 59 | 320 | 2.0 | 5.0 | 0.00 | 0.00 | 0.00 | 66 | 1021.4 |
| 20260505195741 | 59 | 308 | 1.0 | 5.0 | 0.00 | 0.00 | 0.00 | 66 | 1021.4 |
| 20260505195241 | 59 | 308 | 2.0 | 5.0 | 0.00 | 0.00 | 0.00 | 66 | 1021.4 |
| 20260505194750 | 59 | 317 | 3.0 | 8.0 | 0.00 | 0.00 | 0.00 | 66 | 1021.4 |
| 20260505194743 | 59 | 308 | 2.0 | 5.0 | 0.00 | 0.00 | 0.00 | 66 | 1021.4 |
| 20260505193741 | 59 | 312 | 2.0 | 8.0 | 0.00 | 0.00 | 0.00 | 66 | 1021.4 |
| 20260505193242 | 59 | 315 | 2.0 | 5.0 | 0.00 | 0.00 | 0.00 | 66 | 1021.4 |
| 20260505192741 | 59 | 316 | 2.0 | 5.0 | 0.00 | 0.00 | 0.00 | 66 | 1021.4 |
| 20260505192241 | 59 | 315 | 1.0 | 4.0 | 0.00 | 0.00 | 0.00 | 66 | 1021.4 |
| 20260505191743 | 59 | 314 | 2.0 | 4.0 | 0.00 | 0.00 | 0.00 | 66 | 1021.5 |
| 20260505191249 | 59 | 314 | 2.0 | 5.0 | 0.00 | 0.00 | 0.00 | 66 | 1021.4 |
| 20260505191241 | 59 | 314 | 2.0 | 5.0 | 0.00 | 0.00 | 0.00 | 66 | 1021.4 |
| 20260505190910 | 59 | 316 | 1.0 | 4.0 | 0.00 | 0.00 | 0.00 | 67 | 1021.5 |
| 20260505190241 | 59 | 315 | 1.0 | 4.0 | 0.00 | 0.00 | 0.00 | 66 | 1021.4 |
| 20260505185241 | 59 | 316 | 1.0 | 4.0 | 0.00 | 0.00 | 0.00 | 66 | 1021.5 |
| 20260505184741 | 59 | 316 | 1.0 | 3.0 | 0.00 | 0.00 | 0.00 | 67 | 1021.4 |
| 20260505184250 | 59 | 316 | 1.0 | 4.0 | 0.00 | 0.00 | 0.00 | 67 | 1021.5 |
| 20260505184241 | 59 | 316 | 1.0 | 4.0 | 0.00 | 0.00 | 0.00 | 67 | 1021.4 |
| 20260505183741 | 59 | 316 | 2.0 | 4.0 | 0.00 | 0.00 | 0.00 | 67 | 1021.5 |
| 20260505183241 | 59 | 317 | 1.0 | 3.0 | 0.00 | 0.00 | 0.00 | 67 | 1021.5 |
| 20260505182241 | 59 | 317 | 1.0 | 3.0 | 0.00 | 0.00 | 0.00 | 68 | 1021.5 |
| 20260505181743 | 59 | 317 | 1.0 | 2.0 | 0.00 | 0.00 | 0.00 | 67 | 1021.5 |
| 20260505181241 | 59 | 317 | 1.0 | 3.0 | 0.00 | 0.00 | 0.00 | 67 | 1021.5 |
| 20260505180904 | 59 | 317 | 1.0 | 4.0 | 0.00 | 0.00 | 0.00 | 67 | 1021.5 |
| 20260505175736 | 59 | 318 | 2.0 | 5.0 | 0.00 | 0.00 | 0.00 | 67 | 1021.5 |
| 20260505175234 | 59 | 318 | 2.0 | 5.0 | 0.00 | 0.00 | 0.00 | 67 | 1021.5 |
| 20260505174739 | 59 | 317 | 1.0 | 3.0 | 0.00 | 0.00 | 0.00 | 67 | 1021.5 |
| 20260505174733 | 59 | 318 | 1.0 | 4.0 | 0.00 | 0.00 | 0.00 | 67 | 1021.6 |
| 20260505173733 | 59 | 317 | 1.0 | 3.0 | 0.00 | 0.00 | 0.00 | 67 | 1021.6 |
| 20260505173233 | 59 | 317 | 1.0 | 3.0 | 0.00 | 0.00 | 0.00 | 67 | 1021.6 |
| 20260505172731 | 59 | 317 | 1.0 | 5.0 | 0.00 | 0.00 | 0.00 | 67 | 1021.7 |
| 20260505172230 | 59 | 317 | 2.0 | 5.0 | 0.00 | 0.00 | 0.00 | 67 | 1021.7 |
| 20260505171733 | 59 | 311 | 2.0 | 4.0 | 0.00 | 0.00 | 0.00 | 67 | 1021.8 |
| 20260505171232 | 59 | 311 | 2.0 | 4.0 | 0.00 | 0.00 | 0.00 | 67 | 1021.9 |
| 20260505170732 | 59 | 311 | 2.0 | 4.0 | 0.00 | 0.00 | 0.00 | 67 | 1021.9 |
| 20260505170231 | 59 | 311 | 2.0 | 4.0 | 0.00 | 0.00 | 0.00 | 67 | 1021.9 |
| 20260505165732 | 59 | 312 | 1.0 | 4.0 | 0.00 | 0.00 | 0.00 | 67 | 1021.9 |
| 20260505165231 | 59 | 311 | 1.0 | 4.0 | 0.00 | 0.00 | 0.00 | 67 | 1021.9 |
| 20260505164731 | 59 | 311 | 2.0 | 4.0 | 0.00 | 0.00 | 0.00 | 67 | 1021.9 |
| 20260505164231 | 59 | 311 | 2.0 | 5.0 | 0.00 | 0.00 | 0.00 | 67 | 1022.0 |
| 20260505163730 | 59 | 310 | 2.0 | 5.0 | 0.00 | 0.00 | 0.00 | 68 | 1022.0 |
| 20260505163229 | 59 | 310 | 2.0 | 4.0 | 0.00 | 0.00 | 0.00 | 68 | 1022.1 |
| 20260505162728 | 59 | 310 | 2.0 | 5.0 | 0.00 | 0.00 | 0.00 | 68 | 1022.0 |
| 20260505162230 | 59 | 310 | 2.0 | 7.0 | 0.00 | 0.00 | 0.00 | 68 | 1022.1 |
| 20260505161730 | 59 | 312 | 3.0 | 7.0 | 0.00 | 0.00 | 0.00 | 69 | 1022.1 |
| 20260505161230 | 59 | 313 | 3.0 | 8.0 | 0.00 | 0.00 | 0.00 | 70 | 1022.2 |
| 20260505160730 | 59 | 339 | 2.0 | 8.0 | 0.00 | 0.00 | 0.00 | 71 | 1022.2 |
| 20260505160228 | 59 | 278 | 1.0 | 7.0 | 0.00 | 0.00 | 0.00 | 73 | 1022.2 |
| 20260505152729 | 59 | 270 | 0.0 | 2.0 | 0.00 | 0.00 | 0.00 | 74 | 1022.5 |
| 20260505152227 | 59 | 270 | 0.0 | 2.0 | 0.00 | 0.00 | 0.00 | 75 | 1022.6 |
| 20260505151727 | 59 | 270 | 1.0 | 2.0 | 0.00 | 0.00 | 0.00 | 74 | 1022.7 |
| 20260505151228 | 59 | 270 | 0.0 | 3.0 | 0.00 | 0.00 | 0.00 | 74 | 1022.6 |
| 20260505150727 | 59 | 270 | 0.0 | 3.0 | 0.00 | 0.00 | 0.00 | 74 | 1022.8 |
| 20260505150227 | 59 | 270 | 1.0 | 3.0 | 0.00 | 0.00 | 0.00 | 74 | 1022.8 |
| 20260505124717 | 60 | 256 | 0.0 | 2.0 | 0.00 | 0.00 | 0.00 | 73 | 1023.2 |
| 20260505124217 | 60 | 256 | 0.0 | 2.0 | 0.00 | 0.00 | 0.00 | 73 | 1023.2 |
| 20260505123717 | 60 | 256 | 0.0 | 1.0 | 0.00 | 0.00 | 0.00 | 73 | 1023.3 |
| 20260505123223 | 60 | 256 | 0.0 | 2.0 | 0.00 | 0.00 | 0.00 | 73 | 1023.3 |
| 20260505123216 | 60 | 256 | 0.0 | 3.0 | 0.00 | 0.00 | 0.00 | 73 | 1023.3 |
| 20260505122716 | 60 | 256 | 0.0 | 3.0 | 0.00 | 0.00 | 0.00 | 73 | 1023.3 |
| 20260505122341 | 60 | 256 | 0.0 | 2.0 | 0.00 | 0.00 | 0.00 | 73 | 1023.3 |
| 20260505121218 | 60 | 256 | 0.0 | 2.0 | 0.00 | 0.00 | 0.00 | 73 | 1023.3 |
| 20260505120716 | 60 | 256 | 0.0 | 2.0 | 0.00 | 0.00 | 0.00 | 72 | 1023.4 |
| 20260505120216 | 60 | 256 | 0.0 | 1.0 | 0.00 | 0.00 | 0.00 | 72 | 1023.3 |
| 20260505115715 | 60 | 256 | 0.0 | 2.0 | 0.00 | 0.00 | 0.00 | 72 | 1023.4 |
| 20260505115215 | 60 | 256 | 0.0 | 2.0 | 0.00 | 0.00 | 0.00 | 72 | 1023.4 |
| 20260505114715 | 60 | 256 | 0.0 | 2.0 | 0.00 | 0.00 | 0.00 | 73 | 1023.4 |
| 20260505114214 | 60 | 256 | 0.0 | 1.0 | 0.00 | 0.00 | 0.00 | 72 | 1023.4 |
| 20260505113713 | 60 | 256 | 0.0 | 5.0 | 0.00 | 0.00 | 0.00 | 72 | 1023.4 |
| 20260505113215 | 60 | 256 | 0.0 | 5.0 | 0.00 | 0.00 | 0.00 | 72 | 1023.3 |
| 20260505112723 | 60 | 269 | 0.0 | 4.0 | 0.00 | 0.00 | 0.00 | 71 | 1023.3 |
| 20260505112715 | 60 | 269 | 1.0 | 4.0 | 0.00 | 0.00 | 0.00 | 72 | 1023.3 |
| 20260505112213 | 60 | 270 | 0.0 | 4.0 | 0.00 | 0.00 | 0.00 | 72 | 1023.3 |
| 20260505111213 | 60 | 269 | 0.0 | 4.0 | 0.00 | 0.00 | 0.00 | 71 | 1023.4 |
| 20260505110712 | 60 | 269 | 0.0 | 3.0 | 0.00 | 0.00 | 0.00 | 70 | 1023.4 |
| 20260505110211 | 60 | 269 | 1.0 | 4.0 | 0.00 | 0.00 | 0.00 | 70 | 1023.4 |
| 20260505102211 | 61 | 262 | 0.0 | 2.0 | 0.00 | 0.00 | 0.00 | 71 | 1023.2 |
| 20260505101709 | 61 | 263 | 0.0 | 2.0 | 0.00 | 0.00 | 0.00 | 71 | 1023.3 |
| 20260505101209 | 61 | 263 | 0.0 | 3.0 | 0.00 | 0.00 | 0.00 | 71 | 1023.3 |
| 20260505100707 | 61 | 263 | 1.0 | 4.0 | 0.00 | 0.00 | 0.00 | 70 | 1023.3 |
| 20260505100207 | 61 | 263 | 0.0 | 4.0 | 0.00 | 0.00 | 0.00 | 70 | 1023.3 |
| 20260505095705 | 61 | 278 | 0.0 | 3.0 | 0.00 | 0.00 | 0.00 | 69 | 1023.2 |
| 20260505095206 | 61 | 278 | 0.0 | 3.0 | 0.00 | 0.00 | 0.00 | 69 | 1023.2 |
| 20260505094705 | 61 | 280 | 0.0 | 2.0 | 0.00 | 0.00 | 0.00 | 68 | 1023.2 |
| 20260505094205 | 61 | 281 | 0.0 | 2.0 | 0.00 | 0.00 | 0.00 | 67 | 1023.2 |
| 20260505093705 | 61 | 281 | 0.0 | 2.0 | 0.00 | 0.00 | 0.00 | 66 | 1023.2 |
| 20260505093205 | 61 | 281 | 1.0 | 6.0 | 0.00 | 0.00 | 0.00 | 65 | 1023.2 |
| 20260505092705 | 61 | 281 | 1.0 | 6.0 | 0.00 | 0.00 | 0.00 | 65 | 1023.2 |
| 20260505092213 | 61 | 278 | 2.0 | 6.0 | 0.00 | 0.00 | 0.00 | 65 | 1023.2 |
| 20260505092207 | 61 | 279 | 1.0 | 6.0 | 0.00 | 0.00 | 0.00 | 65 | 1023.2 |
| 20260505091205 | 61 | 274 | 3.0 | 6.0 | 0.00 | 0.00 | 0.00 | 65 | 1023.2 |
| 20260505090705 | 61 | 273 | 2.0 | 6.0 | 0.00 | 0.00 | 0.00 | 65 | 1023.2 |
| 20260505090205 | 61 | 268 | 1.0 | 6.0 | 0.00 | 0.00 | 0.00 | 65 | 1023.1 |
| 20260505085705 | 61 | 264 | 1.0 | 4.0 | 0.00 | 0.00 | 0.00 | 65 | 1023.1 |
| 20260505085206 | 61 | 264 | 1.0 | 6.0 | 0.00 | 0.00 | 0.00 | 65 | 1023.1 |
| 20260505084712 | 61 | 254 | 1.0 | 3.0 | 0.00 | 0.00 | 0.00 | 66 | 1023.0 |
| 20260505084705 | 61 | 263 | 2.0 | 6.0 | 0.00 | 0.00 | 0.00 | 65 | 1023.0 |
| 20260505084207 | 61 | 259 | 2.0 | 5.0 | 0.00 | 0.00 | 0.00 | 66 | 1023.0 |
| 20260505083205 | 61 | 254 | 1.0 | 3.0 | 0.00 | 0.00 | 0.00 | 67 | 1022.9 |
| 20260505082707 | 61 | 254 | 1.0 | 4.0 | 0.00 | 0.00 | 0.00 | 67 | 1022.9 |
| 20260505082213 | 60 | 251 | 0.0 | 2.0 | 0.00 | 0.00 | 0.00 | 69 | 1022.8 |
| 20260505082207 | 61 | 253 | 1.0 | 4.0 | 0.00 | 0.00 | 0.00 | 68 | 1022.9 |
| 20260505081831 | 60 | 251 | 0.0 | 2.0 | 0.00 | 0.00 | 0.00 | 70 | 1022.7 |
| 20260505080705 | 61 | 251 | 0.0 | 2.0 | 0.00 | 0.00 | 0.00 | 70 | 1022.6 |
| 20260505080207 | 61 | 251 | 0.0 | 0.0 | 0.00 | 0.00 | 0.00 | 70 | 1022.6 |
| 20260505075705 | 61 | 251 | 0.0 | 0.0 | 0.00 | 0.00 | 0.00 | 70 | 1022.5 |
| 20260505075210 | 61 | 251 | 0.0 | 0.0 | 0.00 | 0.00 | 0.00 | 70 | 1022.5 |
| 20260505075206 | 61 | 251 | 0.0 | 0.0 | 0.00 | 0.00 | 0.00 | 69 | 1022.5 |
| 20260505074829 | 61 | 251 | 0.0 | 1.0 | 0.00 | 0.00 | 0.00 | 69 | 1022.4 |
| 20260505074329 | 61 | 251 | 0.0 | 1.0 | 0.00 | 0.00 | 0.00 | 69 | 1022.4 |
| 20260505073207 | 61 | 251 | 0.0 | 1.0 | 0.00 | 0.00 | 0.00 | 70 | 1022.3 |
| 20260505072711 | 61 | 251 | 0.0 | 1.0 | 0.00 | 0.00 | 0.00 | 70 | 1022.3 |
| 20260505072707 | 61 | 251 | 0.0 | 1.0 | 0.00 | 0.00 | 0.00 | 70 | 1022.3 |
| 20260505071705 | 61 | 251 | 0.0 | 1.0 | 0.00 | 0.00 | 0.00 | 70 | 1022.3 |
| 20260505071211 | 61 | 251 | 0.0 | 2.0 | 0.00 | 0.00 | 0.00 | 70 | 1022.2 |
| 20260505071206 | 61 | 251 | 0.0 | 1.0 | 0.00 | 0.00 | 0.00 | 70 | 1022.2 |
| 20260505070205 | 61 | 251 | 0.0 | 2.0 | 0.00 | 0.00 | 0.00 | 70 | 1022.1 |
| 20260505065705 | 61 | 251 | 0.0 | 2.0 | 0.00 | 0.00 | 0.00 | 70 | 1022.1 |
| 20260505065205 | 61 | 251 | 0.0 | 2.0 | 0.00 | 0.00 | 0.00 | 70 | 1022.1 |
| 20260505064706 | 61 | 251 | 0.0 | 2.0 | 0.00 | 0.00 | 0.00 | 70 | 1022.0 |
| 20260505064205 | 61 | 251 | 0.0 | 2.0 | 0.00 | 0.00 | 0.00 | 70 | 1022.1 |
| 20260505063702 | 61 | 251 | 0.0 | 3.0 | 0.00 | 0.01 | 0.00 | 70 | 1022.0 |
| 20260505063203 | 61 | 251 | 0.0 | 3.0 | 0.00 | 0.01 | 0.00 | 69 | 1021.9 |
| 20260505062703 | 61 | 251 | 0.0 | 3.0 | 0.00 | 0.01 | 0.00 | 70 | 1021.9 |
| 20260505062205 | 61 | 250 | 0.0 | 3.0 | 0.00 | 0.01 | 0.00 | 70 | 1021.9 |
| 20260505061703 | 61 | 250 | 1.0 | 5.0 | 0.00 | 0.01 | 0.00 | 71 | 1021.9 |